Satellite: AO-49
Catalog number: 27605
Epoch time:      05223.56016724
Element set:     811
Inclination:      064.5612 deg
RA of node:       326.9701 deg
Eccentricity:    0.0078077
Arg of perigee:   228.7890 deg
Mean anomaly:     130.6441 deg
Mean motion:   14.72116984 rev/day
Decay rate:        4.8e-07 rev/day^2
Epoch rev:           14200
Checksum:              295

Satellite: SO-50
Catalog number: 27607
Epoch time:      05223.78440903
Element set:     790
Inclination:      064.5602 deg
RA of node:       332.2266 deg
Eccentricity:    0.0078232
Arg of perigee:   227.5964 deg
Mean anomaly:     131.8515 deg
Mean motion:   14.71005061 rev/day
Decay rate:       1.97e-06 rev/day^2
Epoch rev:           14191
Checksum:              286

Satellite: AO-51
Catalog number: 28375
Epoch time:      05223.69813493
Element set:     315
Inclination:      098.2125 deg
RA of node:       284.0462 deg
Eccentricity:    0.0085234
Arg of perigee:   063.2260 deg
Mean anomaly:     297.7623 deg
Mean motion:   14.40472495 rev/day
Decay rate:        3.7e-07 rev/day^2
Epoch rev:            5860
Checksum:              305

/EX
SB KEPS @ AMSAT  $ORB05223.W
Orbital Elements  05223.WEATHER

HR AMSAT ORBITAL ELEMENTS FOR WEATHER SATELLITES
FROM WA5QGD FORT WORTH,TX August 11, 2005
Send SUBSCRIBE KEPS/UNSUBSCRIBE KEPS to majordomo@amsat.org only
BID: ORB05223.W
TO ALL RADIO AMATEURS BT

Satellite: NOAA-10
Catalog number: 16969
Epoch time:      05223.21926933
Element set:     834
Inclination:      098.7631 deg
RA of node:       229.1135 deg
Eccentricity:    0.0012106
Arg of perigee:   337.2563 deg
Mean anomaly:     022.8076 deg
Mean motion:   14.27264533 rev/day
Decay rate:       -7.9e-07 rev/day^2
Epoch rev:           98294
Checksum:              312

Satellite: NOAA-11
Catalog number: 19531
Epoch time:      05223.17545052
Element set:     699
Inclination:      098.8452 deg
RA of node:       309.7204 deg
Eccentricity:    0.0012171
Arg of perigee:   148.3701 deg
Mean anomaly:     211.8219 deg
Mean motion:   14.14763169 rev/day
Decay rate:      -1.60e-06 rev/day^2
Epoch rev:           87070
Checksum:              289

Satellite: NOAA-12
Catalog number: 21263
Epoch time:      05223.42021096
Element set:     189
Inclination:      098.7037 deg
RA of node:       213.4229 deg
Eccentricity:    0.0011822
Arg of perigee:   269.0024 deg
Mean anomaly:     090.9807 deg
Mean motion:   14.25465188 rev/day
Decay rate:        8.8e-07 rev/day^2
Epoch rev:           74011
Checksum:              282

Satellite: MET-3/5
Catalog number: 21655
Epoch time:      05222.87663063
Element set:     886
Inclination:      082.5564 deg
RA of node:       120.0426 deg
Eccentricity:    0.0014290
Arg of perigee:   095.0637 deg
Mean anomaly:     265.2100 deg
Mean motion:   13.17002669 rev/day
Decay rate:        5.1e-07 rev/day^2
Epoch rev:           67251
Checksum:              279

Satellite: MET-2/21
Catalog number: 22782
Epoch time:      05223.73694939
Element set:     274
Inclination:      082.5473 deg
RA of node:       216.9114 deg
Eccentricity:    0.0021462
Arg of perigee:   331.3791 deg
Mean anomaly:     028.6204 deg
Mean motion:   13.83593213 rev/day
Decay rate:       -2.6e-07 rev/day^2
Epoch rev:           60325
Checksum:              292

Satellite: OKEAN-4
Catalog number: 23317
Epoch time:      05222.76365910
Element set:    0703
Inclination:      082.5378 deg
RA of node:       206.4914 deg
Eccentricity:    0.0021441
Arg of perigee:   321.3309 deg
Mean anomaly:     038.6369 deg
Mean motion:   14.82201772 rev/day
Decay rate:       3.55e-06 rev/day^2
Epoch rev:           58399
Checksum:              296

Satellite: NOAA-14
Catalog number: 23455
Epoch time:      05223.35697779
Element set:     712
Inclination:      099.0855 deg
RA of node:       272.5783 deg
Eccentricity:    0.0009185
Arg of perigee:   200.4079 deg
Mean anomaly:     159.6736 deg
Mean motion:   14.13586104 rev/day
Decay rate:       -3.0e-07 rev/day^2
Epoch rev:           54729
Checksum:              326

Satellite: SICH-1
Catalog number: 23657
Epoch time:      05222.75155945
Element set:    0507
Inclination:      082.5323 deg
RA of node:       347.3611 deg
Eccentricity:    0.0022799
Arg of perigee:   306.3440 deg
Mean anomaly:     053.5651 deg
Mean motion:   14.81209290 rev/day
Decay rate:       2.57e-06 rev/day^2
Epoch rev:           53603
Checksum:              287

Satellite: NOAA-15
Catalog number: 25338
Epoch time:      05223.20754363
Element set:     142
Inclination:      098.5124 deg
RA of node:       229.8681 deg
Eccentricity:    0.0010194
Arg of perigee:   193.9071 deg
Mean anomaly:     166.1835 deg
Mean motion:   14.24531424 rev/day
Decay rate:        6.1e-07 rev/day^2
Epoch rev:           37658
Checksum:              293

Satellite: RESURS
Catalog number: 25394
Epoch time:      05222.94511540
Element set:    0181
Inclination:      098.5375 deg
RA of node:       290.5928 deg
Eccentricity:    0.0001779
Arg of perigee:   036.7537 deg
Mean anomaly:     323.3764 deg
Mean motion:   14.24075235 rev/day
Decay rate:        2.0e-07 rev/day^2
Epoch rev:           36824
Checksum:              296

Satellite: FENGYUN1
Catalog number: 25730
Epoch time:      05223.55713606
Element set:     485
Inclination:      098.6086 deg
RA of node:       223.1321 deg
Eccentricity:    0.0013834
Arg of perigee:   305.9543 deg
Mean anomaly:     054.0332 deg
Mean motion:   14.11798438 rev/day
Decay rate:       1.94e-06 rev/day^2
Epoch rev:           32232
Checksum:              277

